{"data":{"norad_id":63830,"epoch":"2026-09-20T01:41:25.662624Z","epoch_age_seconds":186962,"freshness":"STALE","line1":"1 63830U 25092AC  26263.07043591  .00017163  00000+0  63118-3 0  9995","line2":"2 63830  42.9994 154.6902 0001299 273.5534  86.5169 15.27610268 78341","mean_motion":15.27610268,"eccentricity":0.0001299,"inclination_deg":42.9994,"raan_deg":154.6902,"arg_perigee_deg":273.5534,"mean_anomaly_deg":86.5169,"bstar":0.00063118,"rev_number":7834,"period_min":94.264880916603,"perigee_km":482.0672079545,"apogee_km":483.84972055611,"semimajor_km":6861.0954642553,"source":"CELESTRAK","updated_at":"2026-09-21T09:00:35.109502Z"}}